EW0105 Weather Reports


time (UTC)temp
C
wind
direction
speed
KPH
gust
KPH
rain 1hr
cm
rain 24hr
cm
rain mn
cm
humidity
%
barometer
mb
20260504000021 17 360 0.0 0.0 0.00 0.00 0.00 51 1010.4
20260503234519 17 360 0.0 0.0 0.00 0.00 0.00 51 1010.6
20260503233018 17 360 0.0 0.0 0.00 0.00 0.00 51 1010.9
20260503231523 18 360 0.0 0.0 0.00 0.00 0.00 49 1011.0
20260503230017 18 130 0.0 0.0 0.00 0.00 0.00 50 1011.1
20260503224518 18 360 0.0 0.0 0.00 0.00 0.00 49 1011.2
20260503223018 18 122 0.0 0.0 0.00 0.00 0.00 49 1011.5
20260503221514 18 119 0.0 0.0 0.00 0.00 0.00 50 1011.2
20260503220109 17 360 0.0 0.0 0.00 0.00 0.00 50 1011.0
20260503214553 17 132 0.0 0.0 0.00 0.00 0.00 48 1010.7
20260503213035 17 360 0.0 0.0 0.00 0.00 0.00 50 1010.9
20260503211531 17 142 0.0 0.0 0.00 0.00 0.00 49 1011.7
20260503210011 17 360 0.0 0.0 0.00 0.00 0.00 50 1012.0
20260503204517 17 360 0.0 0.0 0.00 0.00 0.00 49 1012.1
20260503203055 16 360 0.0 0.0 0.00 0.00 0.00 51 1012.4
20260503201548 16 360 0.0 0.0 0.00 0.00 0.00 51 1012.7
20260503200034 16 360 0.0 0.0 0.00 0.00 0.00 51 1013.2
20260503194533 16 360 0.0 0.0 0.00 0.00 0.00 51 1013.7
20260503193028 16 105 0.0 0.0 0.00 0.00 0.00 50 1014.4
20260503191535 16 360 0.0 0.0 0.00 0.00 0.00 51 1014.7
20260503190025 16 121 0.0 0.0 0.00 0.00 0.00 50 1014.6
20260503184523 16 360 0.0 0.0 0.00 0.00 0.00 52 1014.9
20260503183020 16 360 0.0 0.0 0.00 0.00 0.00 50 1015.5
20260503181518 16 360 0.0 0.0 0.00 0.00 0.00 50 1015.6
20260503180116 16 360 0.0 0.0 0.00 0.00 0.00 52 1015.7
20260503174556 16 360 0.0 0.0 0.00 0.00 0.00 51 1016.0
20260503173046 15 360 0.0 0.0 0.00 0.00 0.00 50 1016.6
20260503171531 15 360 0.0 0.0 0.00 0.00 0.00 53 1017.2
20260503160110 13 360 0.0 0.0 0.00 0.00 0.00 52 1018.3
20260503140115 11 360 0.0 0.0 0.00 0.00 0.00 46 1019.2
20260503081532 6 360 0.0 0.0 0.00 0.00 0.00 55 1019.0
20260503071602 6 360 0.0 0.0 0.00 0.00 0.00 52 1018.9
20260503054621 6 360 0.0 0.0 0.00 0.00 0.00 34 1019.4
20260503053059 6 360 0.0 0.0 0.00 0.00 0.00 31 1019.4
20260503051540 6 360 0.0 0.0 0.00 0.00 0.00 33 1019.3
20260503050039 6 360 0.0 0.0 0.00 0.00 0.00 36 1019.3
20260503044519 7 360 0.0 0.0 0.00 0.00 0.00 39 1019.2
20260503043033 7 360 0.0 0.0 0.00 0.00 0.00 43 1019.1
20260503041559 7 360 0.0 0.0 0.00 0.00 0.00 49 1019.3
20260503034544 7 360 0.0 0.0 0.00 0.00 0.00 59 1019.4
20260503033038 7 360 0.0 0.0 0.00 0.00 0.00 59 1019.5
20260503031520 7 360 0.0 0.0 0.00 0.00 0.00 60 1019.4
20260503030018 7 360 0.0 0.0 0.00 0.00 0.00 60 1019.4
20260503024559 7 360 0.0 0.0 0.00 0.00 0.00 61 1019.4
20260503023103 8 360 0.0 0.0 0.00 0.00 0.00 61 1019.3
20260503021550 8 360 0.0 0.0 0.00 0.00 0.00 60 1019.2
20260503020048 8 360 0.0 0.0 0.00 0.00 0.00 58 1019.2
20260503014520 9 360 0.0 0.0 0.00 0.00 0.00 58 1018.9
20260503013019 10 360 0.0 0.0 0.00 0.00 0.00 54 1018.8
20260503011501 10 360 0.0 0.0 0.00 0.00 0.00 51 1018.7
20260503010105 10 360 0.0 0.0 0.00 0.00 0.00 50 1018.6
20260503010001 10 360 0.0 0.0 0.00 0.00 0.00 50 1018.5
20260503004559 11 360 0.0 0.0 0.00 0.00 0.00 49 1018.5
20260503003102 11 360 0.0 0.0 0.00 0.00 0.00 50 1018.5
20260503001602 12 360 0.0 0.0 0.00 0.00 0.00 45 1018.5